Search your local weather  

 

Hazardous Weather Conditions

No active alerts for SAN ANTONIO, TEXAS

Current Conditions: SAN ANTONIO, TEXAS

Fair


78.0 F

Last Updated on Sep 22 2020, 8:55 pm CDT
Humidity: 65%
Wind Speed: NE 6.9 mph
Barometer 29.95 in
Dewpoint: 65.1 F
Visibility: 7.00 mi
Precip: --
Heat Index: NA
Wind Chill: NA
Current conditions at:

Castroville Municipal Airport, TX (KCVB)

Lat: 29.34192 Lon: -98.8509

Local Radar Image active severe weather and emergency alerts image image weather storm and storm spotter reports image weather observation monitoring service image
Local
Radar
Active
Alerts
Storm Reports Weather
Monitoring

5 Day Forecast for SAN ANTONIO, TEXAS (78201)

Tuesday

Chance of Rain Showers
High 82 °F
Tuesday
Night
Mostly Cloudy

Low 68 °F
Wednesday

Partly Sunny

High 86 °F
Wednesday
Night
Mostly Clear

Low 66 °F
Thursday

Mostly Sunny

High 88 °F
Thursday
Night
Clear

Low 65 °F
Friday

Mostly Sunny

High 91 °F
Friday
Night
Clear

Low 68 °F
Saturday

Sunny

High 93 °F

Sign-up For Email & Text Message Weather Alert Notification Services



Advertise Here

Observation History for SAN ANTONIO, TEXAS


Time Wind
(mph)
Vis
(mi)
Weather Precip (in) Temperature (F) Relative
Humidity
Wind
Chill
(F)
Heat
Index
(F)
Pressure
Air Dwpt altimeter
(in)
sea level
(mb)
8:55 pm CDT NE 6.9 7.00 Fair -- 78.0 65.1 65% NA NA 29.95 M
7:55 pm CDT NE 5.8 7.00 Fair -- 80.0 65.3 61% NA 82 29.93 M
6:55 pm CDT N 10.4 7.00 Fair -- 83.0 64.8 54% NA 85 29.92 M
5:55 pm CDT N 11.5 G 16.1 10.00 Partly Cloudy -- 85.0 64.6 50% NA 86 29.91 M
4:55 pm CDT N 13.8 G 21.9 7.00 Mostly Cloudy -- 86.0 64.6 48% NA 87 29.91 M
3:55 pm CDT N 12.7 G 17.3 7.00 Overcast -- 86.0 64.6 49% NA 88 29.92 M
2:55 pm CDT N 8.1 10.00 Overcast -- 85.0 64.4 50% NA 86 29.94 M
1:55 pm CDT NW 10.4 10.00 Overcast -- 84.0 64.8 53% NA 86 29.96 M
12:55 pm CDT N 8.1 7.00 Mostly Cloudy -- 83.0 64.6 54% NA 85 29.98 M
11:55 am CDT N 13.8 G 18.4 7.00 Overcast -- 82.0 64.6 56% NA 84 30.00 M
11:35 am CDT N 11.5 G 19.6 10.00 Overcast -- 80.0 64.4 59% NA 82 30.01 M
10:55 am CDT N 12.7 G 19.6 7.00 Overcast -- 81.0 64.4 58% NA 83 30.01 M
9:55 am CDT N 12.7 G 17.3 7.00 Overcast -- 77.0 64.6 66% NA NA 30.00 M
8:55 am CDT N 11.5 G 17.3 7.00 Partly Cloudy -- 75.0 64.4 69% NA NA 29.99 M
7:55 am CDT N 12.7 5.00 Overcast with Haze -- 74.0 64.4 73% NA NA 29.98 M
6:55 am CDT N 13.8 10.00 Overcast -- 74.0 64.4 73% NA NA 29.97 M
5:55 am CDT N 10.4 7.00 Overcast -- 73.0 64.4 74% NA NA 29.96 M
5:35 am CDT N 6.9 7.00 Overcast -- 73.0 64.4 74% NA NA 29.96 M
4:55 am CDT N 10.4 G 16.1 7.00 Overcast -- 74.0 64.4 73% NA NA 29.95 M
3:55 am CDT N 11.5 G 16.1 7.00 Overcast -- 74.0 64.6 73% NA NA 29.97 M
3:35 am CDT N 11.5 7.00 Overcast -- 74.0 64.6 73% NA NA 29.97 M
2:55 am CDT N 6.9 5.00 Overcast with Haze -- 73.0 64.4 74% NA NA 29.97 M
1:55 am CDT N 8.1 7.00 Overcast -- 73.0 64.8 76% NA NA 29.98 M
12:55 am CDT N 5.8 7.00 Overcast -- 73.0 64.6 75% NA NA 29.99 M

Regional Weather Observation

San Antonio, San Antonio International Airport, TX (KSAT)

Mostly Cloudy
75.0 F

San Antonio - Kelly Field, TX (KSKF)

Overcast
76.0 F

San Antonio, Stinson Municipal Airport, TX (KSSF)

Overcast
74.0 F

Randolph Air Force Base, TX (KRND)

Overcast
73.0 F

New Braunfels Regional Airport, TX (KBAZ)

Overcast
75.0 F

Kerrville, Kerrville Municipal Airport/Louis Schreiner Field, TX (KERV)

Overcast
74.0 F

Advertise Here


Advertise Here